sat.trackr.live / text

‹ back to catalog

YUXING-3 06

NORAD 68199 · 2026-052B

PAYLOAD ACTIVE UNKNOWN

§ Identity

Operator
Country
PRC
Launch date
2026-03-16
Launch site
JSC
Launch vehicle
Mass (kg)
RCS (m²)

External: N2YO · Heavens-Above · Gunter

§ Orbital elements

Epoch: 2026-09-19T21:58:21.614016Z

Period
95.27 min
Inclination
97.5254°
Eccentricity
0.0011920
Mean motion
15.11559983 rev/d
Perigee alt
523.2 km
Apogee alt
539.7 km
Semi-major
6,909.6 km
B*
1.4007e-4
RAAN
336.2474°
Arg perigee
350.9299°
Mean anomaly
9.1714°
Rev number
2,835

§ Raw data

YUXING-3 061 68199U 26052B   26262.91552794  .00002314  00000+0  14007-3 0  99922 68199  97.5254 336.2474 0011920 350.9299   9.1714 15.11559983 28353

JSON: /api/v1/satellites/68199 · /tle

For live sub-satellite position, see the globe view (requires WebGL).

§ Visibility from observer

Set your observer location to see the next 7 days of passes ≥ 10°. The values pass through the URL so the page stays shareable.

No JS? Fill the form by hand. The geolocation button needs JavaScript.